Location: Fours
(44.3167°N, 6.7000°E)
Time: 21:53:07
(UTC+00:00)

Cosmos 2227 - Pass Details

Date: 06 June 2022
Orbit: 832 x 863 km, 71.0° (Epoch: 03 July)

Event Time Altitude Azimuth Distance (km) Brightness Sun altitude
Rises 20:15:58 0° 323° (NW) 3,449 9.5 -9.4°
Reaches altitude 10° 20:18:51 10° 311° (NW) 2,509 8.3 -9.8°
Maximum altitude 20:23:23 24° 258° (WSW) 1,694 6.2 -10.3°
Drops below altitude 10° 20:27:54 10° 206° (SSW) 2,493 6.4 -10.9°
Sets 20:30:46 0° 193° (SSW) 3,422 7.0 -11.2°
